FW8930 Weather Reports


Display with metric or nautical units.
time (UTC)temp
F
wind
direction
speed
MPH
gust
MPH
rain 1hr
in
rain 24hr
in
rain mn
in
humidity
%
barometer
mb
20210513084854 39 243 0.0 0.0 0.00 0.00 0.00 73 1020.1
20210513084352 39 243 0.0 0.0 0.00 0.00 0.00 76 1020.0
20210513083849 39 243 0.0 0.0 0.00 0.00 0.00 77 1020.0
20210513083343 40 243 0.0 0.0 0.00 0.00 0.00 74 1020.0
20210513082837 40 243 0.0 0.0 0.00 0.00 0.00 73 1020.1
20210513082334 41 243 0.0 0.0 0.00 0.00 0.00 73 1020.1
20210513081833 41 243 0.0 0.0 0.00 0.00 0.00 71 1020.0
20210513081329 41 243 0.0 0.0 0.00 0.00 0.00 69 1020.1
20210513080825 42 243 0.0 0.0 0.00 0.00 0.00 72 1019.8
20210513080322 42 243 0.0 0.0 0.00 0.00 0.00 69 1019.7
20210513075815 42 243 0.0 0.0 0.00 0.00 0.00 70 1019.8
20210513075311 42 243 0.0 0.0 0.00 0.00 0.00 68 1019.8
20210513074713 42 243 0.0 0.0 0.00 0.00 0.00 67 1019.7
20210513074153 43 243 0.0 0.0 0.00 0.00 0.00 68 1019.9
20210513073118 44 244 0.0 0.0 0.00 0.00 0.00 66 1019.8
20210513072611 44 243 0.0 0.0 0.00 0.00 0.00 63 1019.5
20210513072041 45 243 0.0 0.0 0.00 0.00 0.00 62 1019.6
20210513065729 46 237 0.0 0.0 0.00 0.00 0.00 61 1019.6
20210513065147 46 235 0.0 0.0 0.00 0.00 0.00 58 1019.4
20210513064602 47 238 0.0 0.0 0.00 0.00 0.00 60 1019.3
20210513064055 47 238 0.0 0.0 0.00 0.00 0.00 59 1019.3
20210513063542 47 237 0.0 0.0 0.00 0.00 0.00 57 1019.4
20210513063040 47 243 0.0 2.0 0.00 0.00 0.00 57 1019.3
20210513062531 47 252 0.0 0.0 0.00 0.00 0.00 58 1019.3
20210513061339 48 256 0.0 0.0 0.00 0.00 0.00 57 1019.2
20210513060808 49 256 0.0 0.0 0.00 0.00 0.00 55 1019.0
20210513060209 49 256 0.0 0.0 0.00 0.00 0.00 53 1019.1
20210513055659 50 256 0.0 0.0 0.00 0.00 0.00 53 1019.1
20210513055157 50 256 0.0 0.0 0.00 0.00 0.00 52 1019.0
20210513053046 51 256 0.0 1.0 0.00 0.00 0.00 49 1018.9
20210513052541 52 238 0.0 0.0 0.00 0.00 0.00 48 1018.9
20210513052039 52 216 0.0 1.0 0.00 0.00 0.00 50 1018.7
20210513051517 52 212 0.0 1.0 0.00 0.00 0.00 48 1018.7
20210513051012 52 237 0.0 1.0 0.00 0.00 0.00 48 1018.7
20210513050508 52 221 0.0 1.0 0.00 0.00 0.00 47 1018.6
20210513050006 52 224 1.0 1.0 0.00 0.00 0.00 48 1018.7
20210513045456 52 266 1.0 3.0 0.00 0.00 0.00 46 1018.6
20210513044946 52 226 2.0 2.0 0.00 0.00 0.00 46 1018.8
20210513044442 52 241 0.0 1.0 0.00 0.00 0.00 48 1018.8
20210513043940 53 235 1.0 6.0 0.00 0.00 0.00 46 1018.7
20210513042951 53 244 2.0 2.0 0.00 0.00 0.00 47 1018.4
20210513042450 53 239 2.0 5.0 0.00 0.00 0.00 45 1018.7
20210513041937 53 218 1.0 5.0 0.00 0.00 0.00 45 1018.4
20210513041432 53 270 0.0 1.0 0.00 0.00 0.00 45 1018.5
20210513040912 54 259 1.0 2.0 0.00 0.00 0.00 43 1018.6
20210513035437 55 249 1.0 1.0 0.00 0.00 0.00 42 1018.5
20210513034922 56 234 2.0 2.0 0.00 0.00 0.00 41 1018.6
20210513033902 56 256 1.0 3.0 0.00 0.00 0.00 42 1018.7
20210513033359 55 247 2.0 3.0 0.00 0.00 0.00 42 1018.7
20210513032833 55 225 1.0 5.0 0.00 0.00 0.00 43 1018.7
20210513031930 55 257 2.0 2.0 0.00 0.00 0.00 42 1018.7
20210513031417 54 268 0.0 1.0 0.00 0.00 0.00 44 1018.9
20210513030910 53 271 0.0 1.0 0.00 0.00 0.00 44 1018.6
20210513030410 54 248 1.0 3.0 0.00 0.00 0.00 45 1018.7
20210513025905 54 261 1.0 2.0 0.00 0.00 0.00 43 1018.7
20210513025401 54 274 0.0 2.0 0.00 0.00 0.00 45 1018.7
20210513024859 54 226 3.0 3.0 0.00 0.00 0.00 44 1018.8
20210513024358 54 196 1.0 2.0 0.00 0.00 0.00 44 1018.7
20210513023854 54 241 2.0 3.0 0.00 0.00 0.00 44 1018.6
20210513023349 54 249 1.0 2.0 0.00 0.00 0.00 44 1018.8
20210513022843 54 258 0.0 1.0 0.00 0.00 0.00 43 1018.7
20210513021835 55 204 1.0 2.0 0.00 0.00 0.00 42 1018.8
20210513021332 54 204 1.0 2.0 0.00 0.00 0.00 44 1018.6
20210513020352 54 216 1.0 2.0 0.00 0.00 0.00 43 1018.8
20210513015847 54 231 0.0 1.0 0.00 0.00 0.00 42 1018.6
20210513015343 54 248 1.0 3.0 0.00 0.00 0.00 43 1018.7
20210513014824 54 275 1.0 2.0 0.00 0.00 0.00 44 1018.8
20210513014312 55 311 1.0 2.0 0.00 0.00 0.00 44 1018.8
20210513013804 55 264 0.0 1.0 0.00 0.00 0.00 43 1018.7
20210513013303 55 231 1.0 2.0 0.00 0.00 0.00 42 1018.6
20210513012750 55 348 1.0 3.0 0.00 0.00 0.00 41 1018.8
20210513011815 57 236 1.0 3.0 0.00 0.00 0.00 40 1018.7
20210513011312 55 206 1.0 3.0 0.00 0.00 0.00 41 1018.8
20210513010805 57 240 1.0 2.0 0.00 0.00 0.00 42 1018.7
20210513010247 55 239 2.0 5.0 0.00 0.00 0.00 42 1018.7
20210513005217 57 253 2.0 3.0 0.00 0.00 0.00 40 1018.8
20210513004714 57 278 2.0 2.0 0.00 0.00 0.00 39 1018.9
20210513004209 56 160 1.0 3.0 0.00 0.00 0.00 43 1018.8
20210513003706 55 237 3.0 3.0 0.00 0.00 0.00 42 1018.8
20210513003204 54 203 4.0 6.0 0.00 0.00 0.00 44 1019.0
20210513002659 55 180 2.0 3.0 0.00 0.00 0.00 44 1018.8
20210513002155 55 225 5.0 6.0 0.00 0.00 0.00 42 1019.0
20210513001652 55 247 0.0 3.0 0.00 0.00 0.00 42 1019.2
20210513001149 55 208 4.0 6.0 0.00 0.00 0.00 43 1019.2
20210513000647 55 188 2.0 3.0 0.00 0.00 0.00 42 1019.3
20210513000142 54 198 3.0 7.0 0.00 0.00 0.00 44 1019.4
20210512235640 55 260 2.0 2.0 0.00 0.00 0.00 43 1019.5
20210512235135 56 235 3.0 5.0 0.00 0.00 0.00 41 1019.4
20210512234631 53 180 4.0 6.0 0.00 0.00 0.00 47 1019.3
20210512234128 54 153 4.0 6.0 0.00 0.00 0.00 44 1019.4
20210512233621 54 191 3.0 3.0 0.00 0.00 0.00 44 1019.4
20210512233117 53 255 1.0 2.0 0.00 0.00 0.00 47 1019.7
20210512232614 53 231 1.0 1.0 0.00 0.00 0.00 45 1019.6
20210512232113 53 203 1.0 5.0 0.00 0.00 0.00 44 1019.8
20210512231610 52 253 1.0 1.0 0.00 0.00 0.00 45 1019.6
20210512231109 52 199 1.0 5.0 0.00 0.00 0.00 48 1019.9
20210512230600 52 160 4.0 5.0 0.00 0.00 0.00 48 1019.8
20210512230051 52 191 1.0 3.0 0.00 0.00 0.00 50 1020.0
20210512225541 51 227 0.0 2.0 0.00 0.00 0.00 50 1019.9
20210512225034 51 232 2.0 2.0 0.00 0.00 0.00 48 1019.8
20210512223610 51 166 2.0 3.0 0.00 0.00 0.00 51 1019.9
20210512222607 51 165 1.0 3.0 0.00 0.00 0.00 51 1019.9
20210512222103 51 136 4.0 7.0 0.00 0.00 0.00 51 1019.8
20210512221555 51 254 3.0 3.0 0.00 0.00 0.00 51 1019.9
20210512221051 51 253 1.0 3.0 0.00 0.00 0.00 50 1019.9
20210512220549 51 233 1.0 2.0 0.00 0.00 0.00 49 1019.9
20210512220039 51 196 1.0 2.0 0.00 0.00 0.00 49 1019.9
20210512215535 51 212 0.0 2.0 0.00 0.00 0.00 49 1019.9
20210512215035 51 257 3.0 3.0 0.00 0.00 0.00 46 1019.9
20210512214534 51 157 5.0 6.0 0.00 0.00 0.00 49 1019.8
20210512214032 51 180 4.0 5.0 0.00 0.00 0.00 47 1019.8
20210512213529 51 197 1.0 2.0 0.00 0.00 0.00 49 1019.6
20210512213024 51 244 2.0 2.0 0.00 0.00 0.00 49 1019.9
20210512212511 51 206 0.0 1.0 0.00 0.00 0.00 47 1019.9
20210512212008 51 237 1.0 2.0 0.00 0.00 0.00 48 1019.8
20210512211501 50 258 1.0 3.0 0.00 0.00 0.00 48 1020.0
20210512210958 50 190 1.0 2.0 0.00 0.00 0.00 49 1019.8
20210512210451 50 231 0.0 0.0 0.00 0.00 0.00 49 1019.9
20210512205940 50 231 0.0 0.0 0.00 0.00 0.00 51 1019.8
20210512204932 50 231 1.0 1.0 0.00 0.00 0.00 53 1019.8
20210512204429 50 229 1.0 2.0 0.00 0.00 0.00 53 1019.7
20210512203927 50 249 0.0 1.0 0.00 0.00 0.00 56 1020.0
20210512203000 50 337 0.0 1.0 0.00 0.00 0.00 58 1019.9
20210512202459 50 338 1.0 2.0 0.00 0.00 0.00 57 1019.8
20210512201954 50 338 0.0 3.0 0.00 0.00 0.00 58 1019.8
20210512201451 50 306 2.0 2.0 0.00 0.00 0.00 56 1019.9
20210512200944 51 276 0.0 1.0 0.00 0.00 0.00 54 1020.0
20210512200440 50 305 1.0 2.0 0.00 0.00 0.00 60 1020.1
20210512195927 50 222 0.0 1.0 0.00 0.00 0.00 55 1019.7
20210512195412 50 222 0.0 1.0 0.00 0.00 0.00 55 1020.0
20210512194911 50 228 0.0 2.0 0.00 0.00 0.00 54 1019.9
20210512194410 50 262 2.0 3.0 0.00 0.00 0.00 54 1019.8
20210512193906 50 214 1.0 2.0 0.00 0.00 0.00 53 1019.8
20210512193400 50 247 1.0 3.0 0.00 0.00 0.00 52 1019.9
20210512192849 50 213 0.0 2.0 0.00 0.00 0.00 54 1019.6
20210512192347 50 212 1.0 1.0 0.00 0.00 0.00 54 1019.8
20210512190916 51 5 4.0 5.0 0.00 0.00 0.00 52 1019.8
20210512190401 51 186 0.0 2.0 0.00 0.00 0.00 53 1019.8
20210512185857 51 205 1.0 2.0 0.00 0.00 0.00 51 1019.9
20210512185352 51 233 2.0 3.0 0.00 0.00 0.00 54 1019.7
20210512184849 50 246 2.0 3.0 0.00 0.00 0.00 54 1020.1
20210512184343 50 244 1.0 2.0 0.00 0.00 0.00 56 1020.1
20210512183839 51 220 2.0 2.0 0.00 0.00 0.00 57 1019.9
20210512183332 50 162 3.0 3.0 0.00 0.00 0.00 57 1019.7
20210512182833 49 314 0.0 0.0 0.00 0.00 0.00 57 1019.9
20210512182326 49 314 1.0 1.0 0.00 0.00 0.00 58 1019.9
20210512181751 48 313 0.0 1.0 0.00 0.00 0.00 63 1020.0
20210512180816 47 239 1.0 3.0 0.00 0.00 0.00 60 1019.8
20210512180300 48 217 2.0 2.0 0.00 0.00 0.00 63 1020.0
20210512175742 47 236 1.0 1.0 0.00 0.00 0.00 63 1019.9
20210512174647 47 241 0.0 3.0 0.00 0.00 0.00 63 1019.9
20210512174126 47 206 2.0 2.0 0.00 0.00 0.00 64 1020.1
20210512173229 46 204 1.0 1.0 0.00 0.00 0.00 65 1020.0
20210512172725 46 236 0.0 1.0 0.00 0.00 0.00 64 1019.9
20210512172155 45 240 0.0 1.0 0.00 0.00 0.00 65 1020.0
20210512171650 46 228 0.0 1.0 0.00 0.00 0.00 65 1020.0
20210512171139 45 239 1.0 2.0 0.00 0.00 0.00 66 1019.9
20210512170636 45 213 0.0 1.0 0.00 0.00 0.00 66 1020.0
20210512170128 45 225 0.0 0.0 0.00 0.00 0.00 66 1019.8
20210512165623 44 2 1.0 1.0 0.00 0.00 0.00 67 1020.0
20210512164649 44 2 0.0 0.0 0.00 0.00 0.00 67 1020.2
20210512164145 44 2 0.0 0.0 0.00 0.00 0.00 70 1020.0
20210512163638 43 2 0.0 0.0 0.00 0.00 0.00 71 1020.1
20210512163119 43 2 0.0 0.0 0.00 0.00 0.00 70 1020.1
20210512162159 42 2 0.0 0.0 0.00 0.00 0.00 74 1020.1
20210512161655 42 2 0.0 0.0 0.00 0.00 0.00 74 1020.2
20210512161153 42 2 0.0 0.0 0.00 0.00 0.00 77 1020.2
20210512160649 41 2 0.0 0.0 0.00 0.00 0.00 77 1019.9
20210512160143 42 2 0.0 0.0 0.00 0.00 0.00 79 1020.0
20210512155639 41 4 0.0 0.0 0.00 0.00 0.00 77 1019.9
20210512155134 41 4 0.0 0.0 0.00 0.00 0.00 79 1019.8
20210512154631 40 4 0.0 0.0 0.00 0.00 0.00 81 1019.8
20210512154119 39 4 0.0 0.0 0.00 0.00 0.00 84 1019.9
20210512153618 39 4 0.0 0.0 0.00 0.00 0.00 85 1019.8
20210512153116 38 4 0.0 0.0 0.00 0.00 0.00 85 1020.0
20210512152615 38 4 0.0 0.0 0.00 0.00 0.00 87 1020.0
20210512152114 38 3 0.0 0.0 0.00 0.00 0.00 86 1019.9
20210512151607 37 3 0.0 0.0 0.00 0.00 0.00 83 1020.1
20210512151101 37 3 0.0 0.0 0.00 0.00 0.00 87 1020.1
20210512150558 37 3 0.0 0.0 0.00 0.00 0.00 88 1020.0
20210512150052 37 3 0.0 0.0 0.00 0.00 0.00 85 1020.3
20210512145549 36 3 0.0 0.0 0.00 0.00 0.00 87 1020.2
20210512145037 36 3 0.0 0.0 0.00 0.00 0.00 87 1020.2
20210512144528 36 3 0.0 0.0 0.00 0.00 0.00 88 1020.2
20210512143549 36 3 0.0 0.0 0.00 0.00 0.00 85 1020.4
20210512142604 35 3 0.0 0.0 0.00 0.00 0.00 87 1020.2
20210512142103 35 3 0.0 0.0 0.00 0.00 0.00 89 1020.2
20210512140550 35 3 0.0 0.0 0.00 0.00 0.00 88 1020.2
20210512135644 35 3 0.0 1.0 0.00 0.00 0.00 88 1020.1
20210512135136 35 3 0.0 0.0 0.00 0.00 0.00 89 1020.2
20210512134631 35 3 0.0 0.0 0.00 0.00 0.00 90 1020.2
20210512134019 35 3 0.0 0.0 0.00 0.00 0.00 88 1020.2
20210512133055 36 3 0.0 0.0 0.00 0.00 0.00 86 1019.9
20210512132550 36 3 0.0 0.0 0.00 0.00 0.00 88 1020.2
20210512132042 36 3 0.0 0.0 0.00 0.00 0.00 86 1020.1
20210512131537 36 3 0.0 0.0 0.00 0.00 0.00 87 1020.1
20210512131035 37 3 0.0 0.0 0.00 0.00 0.00 86 1019.8
20210512130533 37 3 0.0 0.0 0.00 0.00 0.00 85 1020.1
20210512130010 37 3 0.0 0.0 0.00 0.00 0.00 82 1019.9
20210512125440 37 4 0.0 0.0 0.00 0.00 0.00 81 1020.1
20210512124529 39 4 0.0 0.0 0.00 0.00 0.00 76 1019.8
20210512124025 39 4 0.0 1.0 0.00 0.00 0.00 74 1019.8
20210512123519 40 4 0.0 1.0 0.00 0.00 0.00 74 1019.8
20210512123016 40 4 0.0 0.0 0.00 0.00 0.00 72 1019.7
20210512122513 40 4 0.0 0.0 0.00 0.00 0.00 74 1019.7
20210512122008 40 4 0.0 0.0 0.00 0.00 0.00 71 1019.9
20210512121506 39 4 0.0 0.0 0.00 0.00 0.00 74 1019.9
20210512121003 40 4 0.0 0.0 0.00 0.00 0.00 73 1019.7
20210512120456 39 4 1.0 1.0 0.00 0.00 0.00 74 1019.7
20210512115945 40 4 0.0 0.0 0.00 0.00 0.00 74 1019.7
20210512114946 40 1 0.0 1.0 0.00 0.00 0.00 71 1019.8
20210512114443 40 1 0.0 0.0 0.00 0.00 0.00 71 1019.7
20210512113315 39 2 1.0 2.0 0.00 0.00 0.00 77 1019.8
20210512112813 39 3 1.0 2.0 0.00 0.00 0.00 75 1019.9
20210512112305 40 1 1.0 2.0 0.00 0.00 0.00 72 1019.9
20210512111802 40 2 2.0 3.0 0.00 0.00 0.00 70 1019.5
20210512110925 39 1 0.0 2.0 0.00 0.00 0.00 75 1019.9
20210512110421 39 1 0.0 1.0 0.00 0.00 0.00 78 1019.7
20210512105918 40 1 1.0 1.0 0.00 0.00 0.00 75 1019.6
20210512105414 40 1 1.0 2.0 0.00 0.00 0.00 71 1019.7
20210512104905 41 1 1.0 1.0 0.00 0.00 0.00 72 1019.6
20210512104402 41 2 2.0 3.0 0.00 0.00 0.00 70 1019.6
20210512103843 40 358 1.0 2.0 0.00 0.00 0.00 71 1019.7
20210512103328 39 1 0.0 0.0 0.00 0.00 0.00 77 1019.5
20210512102319 40 1 1.0 1.0 0.00 0.00 0.00 75 1019.5
20210512101401 40 343 1.0 2.0 0.00 0.00 0.00 75 1019.3
20210512100859 40 1 0.0 1.0 0.00 0.00 0.00 75 1019.6
20210512100353 40 1 0.0 2.0 0.00 0.00 0.00 75 1019.5
20210512095852 40 5 1.0 1.0 0.00 0.00 0.00 75 1019.3
20210512095349 40 5 0.0 1.0 0.00 0.00 0.00 72 1019.3
20210512094846 41 5 0.0 0.0 0.00 0.00 0.00 75 1019.3
20210512094343 40 5 0.0 0.0 0.00 0.00 0.00 78 1019.3
20210512093840 40 5 0.0 0.0 0.00 0.00 0.00 79 1019.1
20210512093338 40 5 1.0 2.0 0.00 0.00 0.00 77 1019.3
20210512092823 40 7 2.0 2.0 0.00 0.00 0.00 79 1019.3
20210512092321 41 4 1.0 2.0 0.00 0.00 0.00 78 1019.1
20210512091818 40 4 1.0 1.0 0.00 0.00 0.00 77 1019.2
20210512091309 40 5 0.0 1.0 0.00 0.00 0.00 82 1019.2
20210512090806 42 5 0.0 1.0 0.00 0.00 0.00 77 1019.2
20210512090259 41 5 0.0 0.0 0.00 0.00 0.00 78 1019.1
20210512085744 42 5 0.0 0.0 0.00 0.00 0.00 79 1019.0
20210512085241 42 5 0.0 0.0 0.00 0.00 0.00 79 1019.0